Location: Alexandria
(38.8050°N, 77.0470°W)
Time: 00:28:29
(UTC-05:00)

N. Korean satellite - Pass Details

Date: 12 November 2017
Orbit: 460 x 514 km, 97.2° (Epoch: 23 November)

Event Time Altitude Azimuth Distance (km) Brightness Sun altitude
Rises 05:50:57 0° 35° (NE) 2,590 10.6 -11.3°
Reaches altitude 10° 05:54:06 10° 65° (ENE) 1,713 10.1 -10.7°
Maximum altitude 05:55:46 13° 92° (E) 1,558 10.5 -10.4°
Drops below altitude 10° 05:57:25 10° 119° (ESE) 1,718 10.8 -10.1°
Sets 06:00:35 0° 149° (SSE) 2,605 11.0 -9.5°
